TimeMDT,TemperatureF,Dew PointF,Humidity,Sea Level PressureIn,VisibilityMPH,Wind Direction,Wind SpeedMPH,Gust SpeedMPH,PrecipitationIn,Events,Conditions,WindDirDegrees,DateUTC
12:53 AM,77.0,48.9,37,29.85,10.0,Calm,Calm,-,N/A,,Clear,0,2013-07-03 06:53:00
1:53 AM,70.0,48.9,47,29.84,10.0,Calm,Calm,-,N/A,,Clear,0,2013-07-03 07:53:00
2:53 AM,71.1,51.1,49,29.83,10.0,SW,9.2,-,N/A,,Clear,220,2013-07-03 08:53:00
3:53 AM,69.1,52.0,54,29.83,10.0,SSW,4.6,-,N/A,,Partly Cloudy,210,2013-07-03 09:53:00
4:53 AM,69.1,53.1,57,29.81,10.0,WSW,6.9,-,N/A,,Scattered Clouds,240,2013-07-03 10:53:00
5:53 AM,64.0,53.1,67,29.83,10.0,SW,11.5,-,N/A,,Partly Cloudy,230,2013-07-03 11:53:00
6:53 AM,66.0,54.0,65,29.84,10.0,SW,12.7,-,N/A,,Partly Cloudy,220,2013-07-03 12:53:00
7:53 AM,69.1,53.1,57,29.85,10.0,SW,13.8,-,N/A,,Scattered Clouds,230,2013-07-03 13:53:00
8:53 AM,73.9,54.0,50,29.84,10.0,SW,15.0,-,N/A,,Partly Cloudy,220,2013-07-03 14:53:00
9:53 AM,84.9,57.0,38,29.82,10.0,NNW,21.9,28.8,N/A,,Partly Cloudy,340,2013-07-03 15:53:00
10:07 AM,91.9,54.0,27,29.95,10.0,NW,19.6,29.9,N/A,,Partly Cloudy,320,2013-07-03 16:07:00
10:53 AM,91.0,53.1,27,29.81,10.0,NW,19.6,24.2,N/A,,Partly Cloudy,310,2013-07-03 16:53:00
11:53 AM,95.0,51.1,22,29.81,10.0,NNW,15.0,24.2,N/A,,Scattered Clouds,340,2013-07-03 17:53:00
12:53 PM,95.0,50.0,22,29.80,10.0,North,12.7,26.5,N/A,,Scattered Clouds,350,2013-07-03 18:53:00
1:53 PM,97.0,48.0,19,29.80,10.0,NNW,13.8,20.7,N/A,,Partly Cloudy,340,2013-07-03 19:53:00
2:53 PM,97.0,46.9,18,29.79,10.0,WNW,13.8,20.7,N/A,,Scattered Clouds,290,2013-07-03 20:53:00
3:53 PM,97.0,48.9,19,29.78,10.0,North,8.1,18.4,N/A,,Scattered Clouds,10,2013-07-03 21:53:00
4:53 PM,98.1,41.0,14,29.76,10.0,NW,18.4,23.0,N/A,,Partly Cloudy,310,2013-07-03 22:53:00
5:53 PM,97.0,43.0,16,29.76,10.0,NNW,16.1,-,N/A,,Partly Cloudy,340,2013-07-03 23:53:00
6:53 PM,95.0,45.0,18,29.75,10.0,North,10.4,-,N/A,,Partly Cloudy,10,2013-07-04 00:53:00
7:53 PM,91.9,50.0,24,29.75,10.0,ENE,10.4,-,N/A,,Partly Cloudy,60,2013-07-04 01:53:00
8:53 PM,87.1,52.0,30,29.75,10.0,East,8.1,-,N/A,,Partly Cloudy,80,2013-07-04 02:53:00
9:53 PM,84.0,52.0,33,29.75,10.0,East,4.6,-,N/A,,Partly Cloudy,90,2013-07-04 03:53:00
10:53 PM,80.1,51.1,36,29.76,10.0,NNE,6.9,-,N/A,,Partly Cloudy,30,2013-07-04 04:53:00
11:53 PM,77.0,53.1,43,29.78,10.0,NNE,5.8,-,N/A,,Clear,30,2013-07-04 05:53:00